Current weather by "City, St" or "zip code"  
 

Current Conditions: Doylestown, Doylestown Airport, PA

Fog/Mist


64.0 F

Last Updated on May 21 2022, 4:54 am EDT
Humidity: 96%
Wind Speed: N 0.0 mph
Barometer 29.96 in
Dewpoint: 63.0 F
Visibility: 1.00 mi
Precip: --
Heat Index: NA
Wind Chill: NA
Current conditions at:

Doylestown, Doylestown Airport, PA (KDYL)

Lat: 40.33016 Lon: 75.12286

Local Radar Image active severe weather and emergency alerts image image weather storm and storm spotter reports image weather observation monitoring service image
Local
Radar
Active
Alerts
Storm Reports Obs
Monitoring

Sign-up For Email & Text Message Weather Alert Notification Services



Advertise Here

Observation History for Doylestown, Doylestown Airport, PA


Time Wind
(mph)
Vis
(mi)
Weather Precip (in) Temperature (F) Relative
Humidity
Wind
Chill
(F)
Heat
Index
(F)
Pressure
Air Dwpt altimeter
(in)
sea level
(mb)
Rmks
4:54 am EDT N 0.0 1.00 Fog/Mist -- 64.0 63.0 96% NA NA 29.96 1014.1
3:54 am EDT NE 3.5 0.75 Fog/Mist -- 65.0 63.0 93% NA NA 29.94 1013.6
2:54 am EDT N 4.6 0.50 Fog -- 65.0 63.0 93% NA NA 29.93 1013.0
1:54 am EDT N 3.5 0.50 Fog -- 66.0 64.0 93% NA NA 29.92 1012.6
12:54 am EDT 4.6 0.75 Fog/Mist -- 66.0 64.0 93% NA NA 29.92 1012.7
11:54 pm EDT N 0.0 0.50 Fog -- 66.0 64.0 93% NA NA 29.91 1012.6
10:54 pm EDT 3.5 1.25 Fog/Mist -- 66.0 64.0 93% NA NA 29.92 1012.7
9:54 pm EDT 3.5 7.00 Overcast -- 66.0 64.0 93% NA NA 29.91 1012.7
8:54 pm EDT N 0.0 10.00 A Few Clouds -- 67.0 64.0 91% NA NA 29.90 1012.3
7:54 pm EDT N 0.0 9.00 Mostly Cloudy -- 68.0 64.0 87% NA NA 29.89 1012.1
5:54 pm EDT 3.5 10.00 Fair 00.01 70.0 66.0 87% NA NA 29.88 1011.7
4:54 pm EDT 3.5 8.00 Thunderstorm in Vicinity Light Rain 00.48 68.0 64.9 90% NA NA 29.89 1012.0
3:54 pm EDT S 8.1 10.00 Mostly Cloudy -- 74.0 64.0 71% NA NA 29.91 1012.5
2:54 pm EDT 6.9 10.00 Light Rain Trace 80.0 59.0 49% NA 81 29.87 1011.2
11:54 am EDT 3.5 10.00 Overcast -- 69.0 61.0 76% NA NA 29.95 1013.8
10:54 am EDT S 4.6 10.00 Fair -- 69.0 60.1 73% NA NA 29.95 1013.7
9:54 am EDT N 0.0 10.00 Mostly Cloudy -- 65.0 59.0 81% NA NA 29.93 1013.3
8:54 am EDT NE 3.5 10.00 A Few Clouds -- 62.0 57.0 84% NA NA 29.94 1013.7
7:54 am EDT N 0.0 10.00 Overcast -- 60.0 57.9 93% NA NA 29.94 1013.4
5:54 am EDT N 0.0 0.25 Fog -- 56.0 54.0 93% NA NA 29.89 1011.8

Regional Weather Observation


Quakertown Airport, PA (KUKT)

Fog
64.0 F

Allentown, Lehigh Valley International Airport, PA (KABE)

Fog/Mist
65.0 F

Allentown Queen City Municipal Airport, PA (KXLL)

Fog/Mist
64.0 F

Doylestown, Doylestown Airport, PA (KDYL)

Fog/Mist
64.0 F

Pottstown, Pottstown Limerick Airport, PA (KPTW)

Fog
64.0 F

Philadelphia - Wings Field Airport, PA (KLOM)

Fog
65.0 F

Advertise Here


Advertise Here